Hourly Data Report for December 26, 1973

All times are specified in Local Standard Time (LST). Add 1 hour to adjust for Daylight Saving Time where and when it is observed.

COMOX A
BRITISH COLUMBIA

49°43'00.000" N
124°54'00.000" W
25.60 m
1021830
71893
YQQ

Download Data

Hourly Data (December 1973)
Hourly Data Report for December 26, 1973
TIME Temp Definition
°C
Dew Point Temp Definition
°C
Rel Hum Definition
%
Wind Dir Definition
10's deg

Wind Spd Definition
km/h
Visibility Definition
km
Stn Press Definition
kPa
Hmdx Definition


Wind Chill Definition


Weather Definition


00:00 3.3 2.8 98   0 32.2 101.85     Cloudy
01:00 3.3 2.2 96   0 32.2 101.81     Cloudy
02:00 3.3 2.8 97   0 32.2 101.76     Cloudy
03:00 3.9 3.3 97   0 32.2 101.74     Rain
04:00 3.3 2.8 97   0 32.2 101.69     Cloudy
05:00 3.3 2.8 98 24 5 32.2 101.62     Rain
06:00 3.3 2.8 98   0 32.2 101.54     Cloudy
07:00 2.8 2.8 98   0 32.2 101.41     Cloudy
08:00 3.3 2.8 97 28 5 32.2 101.33     Cloudy
09:00 3.3 2.8 96 26 3 32.2 101.28     Rain
10:00 3.3 3.3 97   0 32.2 101.23     Rain
11:00 3.9 3.3 97 27 5 32.2 101.17     Cloudy
12:00 3.9 3.3 97   0 32.2 101.07     Drizzle
13:00 4.4 3.9 96 27 3 32.2 100.97     Cloudy
14:00 4.4 3.3 92 31 8 32.2 100.88     Cloudy
15:00 4.4 3.3 93 26 5 32.2 100.78     Cloudy
16:00 3.9 2.8 93 28 6 32.2 100.71     Cloudy
17:00 3.9 2.2 88 28 6 32.2 100.67     Cloudy
18:00 3.3 2.8 98 27 10 32.2 100.60     Cloudy
19:00 2.8 2.2 97 24 6 32.2 100.49     Cloudy
20:00 1.7 1.7 97 25 5 32.2 100.37     Mostly Cloudy
21:00 0.6 0.0 96 26 10 32.2 100.33     Mainly Clear
22:00 0.6 0.0 97 28 10 32.2 100.36     Mainly Clear
23:00 0.6 0.0 98 26 10 32.2 100.34     Mainly Clear

Notes on Data Quality.

Legend

  • E = Estimated
  • M = Missing
  • NA = Not Available
Date modified: